This demonstration page uses our WeatherBlox Daily Observations layout. Learn more.

Left ArrowRight Arrow

41.55636, -103.73856

Hourly Observations for February 19, 2019

Temp ( °F °C ) Dew Point ( °F °C ) Humidity (%) Winds ( mph kmh ) Pressure ( in mb ) Visibility ( mi km ) Precip ( " mm )
12:58 am 00:58 Cloudy with Light Snow 12 -11 5 -15 73 73 SSE 13 20 30.38 1029 10 16 N/A
1:58 am 01:58 Mostly Cloudy with Light Snow Showers 11 -11.9 5 -14.8 79 79 SSE 16 26 30.39 1029 10 16 N/A
2:58 am 02:58 Mostly Cloudy with Light Snow 10 -12.1 6 -14.4 83 83 SSE 14 22 30.39 1029 5 8 N/A
3:58 am 03:58 Mostly Cloudy with Light Snow 10 -12.2 6 -14.6 83 83 SSE 21 33 30.36 1028 9 14 N/A
4:58 am 04:58 Mostly Cloudy with Light Snow 9 -12.6 6 -14.7 84 84 SSE 15 24 30.36 1028 6 10 N/A
5:58 am 05:58 Mostly Cloudy with Light Snow 9 -12.9 5 -14.8 86 86 SE 15 24 30.33 1027 6 10 N/A
6:58 am 06:58 Mostly Cloudy with Light Snow 8 -13.3 5 -15.1 86 86 SSE 15 24 30.28 1026 10 16 N/A
7:58 am 07:58 Cloudy with Light Snow 8 -13.6 4 -15.5 86 86 SSE 17 28 30.28 1026 6 10 N/A
8:58 am 08:58 Cloudy with Light Snow 7 -13.7 4 -15.6 86 86 SSE 12 19 30.27 1025 5 8 N/A
9:58 am 09:58 Mostly Cloudy with Light Snow 7 -13.8 4 -15.6 86 86 SSE 8 13 30.24 1024 9 14 N/A
10:58 am 10:58 Cloudy with Light Snow 7 -14 4 -15.7 87 87 SE 14 22 30.21 1023 6 10 N/A
11:58 am 11:58 Cloudy with Light Snow 8 -13.6 4 -15.3 87 87 SSE 14 22 30.21 1023 3 4 N/A
12:58 pm 12:58 Mostly Cloudy with Light Snow 8 -13.5 4 -15.4 86 86 SSE 12 19 30.21 1023 6 10 N/A
1:58 pm 13:58 Mostly Cloudy with Light Snow 8 -13.3 5 -15.1 86 86 SSE 10 17 30.20 1023 5 8 N/A
2:58 pm 14:58 Cloudy with Light Snow 10 -12.5 6 -14.3 87 87 SSE 12 19 30.20 1023 4 6 N/A
3:58 pm 15:58 Cloudy with Light Snow 11 -11.5 7 -13.7 84 84 S 17 28 30.18 1022 3 5 N/A
4:58 pm 16:58 Mostly Cloudy with Light Snow 13 -10.7 8 -13.6 79 79 SSE 17 28 30.16 1021 4 6 N/A
5:58 pm 17:58 Mostly Cloudy with Light Snow 14 -9.9 9 -12.7 80 80 S 17 28 30.13 1020 3 4 N/A
6:58 pm 18:58 Mostly Cloudy with Light Snow 15 -9.4 10 -12.5 78 78 S 13 20 30.09 1019 4 6 N/A
7:58 pm 19:58 Cloudy with Light Snow 14 -9.9 10 -12.1 84 84 SSE 13 20 30.07 1018 1 2 N/A
8:58 pm 20:58 Cloudy with Light Snow 15 -9.6 10 -12 83 83 SSE 13 20 30.04 1017 5 8 N/A
9:58 pm 21:58 Mostly Cloudy with Light Snow 15 -9.2 11 -11.8 82 82 SSE 13 20 30.01 1016 3 4 N/A
10:58 pm 22:58 Partly Cloudy with Light Snow Showers 15 -9.4 10 -12.5 78 78 S 13 20 30.00 1016 10 16 N/A

Powered by AerisWeather